Year,Month,Day,Hour,Minute,Value (Times are PST for windspeed in km/hr)
2014,10,21,00,00,3.00
2014,10,21,00,01,2.40
2014,10,21,00,02,2.20
2014,10,21,00,03,3.60
2014,10,21,00,04,5.10
2014,10,21,00,05,4.90
2014,10,21,00,06,3.30
2014,10,21,00,07,1.50
2014,10,21,00,08,1.90
2014,10,21,00,09,1.20
2014,10,21,00,10,1.00
2014,10,21,00,11,0.30
2014,10,21,00,12,0.00
2014,10,21,00,13,1.10
2014,10,21,00,14,2.50
2014,10,21,00,15,2.40
2014,10,21,00,16,2.00
2014,10,21,00,17,1.90
2014,10,21,00,18,1.50
2014,10,21,00,19,1.50
2014,10,21,00,20,0.90
2014,10,21,00,21,0.90
2014,10,21,00,22,1.30
2014,10,21,00,23,0.90
2014,10,21,00,24,1.50
2014,10,21,00,25,1.50
2014,10,21,00,26,1.60
2014,10,21,00,27,1.70
2014,10,21,00,28,1.70
2014,10,21,00,29,1.00
2014,10,21,00,30,1.10
2014,10,21,00,31,1.20
2014,10,21,00,32,1.80
2014,10,21,00,33,2.00
2014,10,21,00,34,1.40
2014,10,21,00,35,0.90
2014,10,21,00,36,1.60
2014,10,21,00,37,2.10
2014,10,21,00,38,1.60
2014,10,21,00,39,0.90
2014,10,21,00,40,1.70
2014,10,21,00,41,2.00
2014,10,21,00,42,2.40
2014,10,21,00,43,2.10
2014,10,21,00,44,2.30
2014,10,21,00,45,2.10
2014,10,21,00,46,1.50
2014,10,21,00,47,1.20
2014,10,21,00,48,0.80
2014,10,21,00,49,1.10
2014,10,21,00,50,0.10
2014,10,21,00,51,0.00
2014,10,21,00,52,0.00
2014,10,21,00,53,0.00
2014,10,21,00,54,0.00
2014,10,21,00,55,0.40
2014,10,21,00,56,1.00
2014,10,21,00,57,0.60
2014,10,21,00,58,0.10
2014,10,21,00,59,0.00
2014,10,21,01,00,0.70
2014,10,21,01,01,1.50
2014,10,21,01,02,1.50
2014,10,21,01,03,1.50
2014,10,21,01,04,0.80
2014,10,21,01,05,0.10
2014,10,21,01,06,0.40
2014,10,21,01,07,1.00
2014,10,21,01,08,1.50
2014,10,21,01,09,0.30
2014,10,21,01,10,0.80
2014,10,21,01,11,0.80
2014,10,21,01,12,1.00
2014,10,21,01,13,0.70
2014,10,21,01,14,0.50
2014,10,21,01,15,1.80
2014,10,21,01,16,1.90
2014,10,21,01,17,1.10
2014,10,21,01,18,1.10
2014,10,21,01,19,1.30
2014,10,21,01,20,0.90
2014,10,21,01,21,1.50
2014,10,21,01,22,2.10
2014,10,21,01,23,1.80
2014,10,21,01,24,1.80
2014,10,21,01,25,2.30
2014,10,21,01,26,2.60
2014,10,21,01,27,2.10
2014,10,21,01,28,1.70
2014,10,21,01,29,2.30
2014,10,21,01,30,1.90
2014,10,21,01,31,1.30
2014,10,21,01,32,1.30
2014,10,21,01,33,1.60
2014,10,21,01,34,1.20
2014,10,21,01,35,1.40
2014,10,21,01,36,0.80
2014,10,21,01,37,0.40
2014,10,21,01,38,0.00
2014,10,21,01,39,0.00
2014,10,21,01,40,0.00
2014,10,21,01,41,0.00
2014,10,21,01,42,0.00
2014,10,21,01,43,0.00
2014,10,21,01,44,0.00
2014,10,21,01,45,0.00
2014,10,21,01,46,0.00
2014,10,21,01,47,0.00
2014,10,21,01,48,0.00
2014,10,21,01,49,0.10
2014,10,21,01,50,0.00
2014,10,21,01,51,0.00
2014,10,21,01,52,0.00
2014,10,21,01,53,0.00
2014,10,21,01,54,0.00
2014,10,21,01,55,0.00
2014,10,21,01,56,0.00
2014,10,21,01,57,0.00
2014,10,21,01,58,0.00
2014,10,21,01,59,0.00
2014,10,21,02,00,0.00
2014,10,21,02,01,0.00
2014,10,21,02,02,0.00
2014,10,21,02,03,0.00
2014,10,21,02,04,0.00
2014,10,21,02,05,0.00
2014,10,21,02,06,0.00
2014,10,21,02,07,0.10
2014,10,21,02,08,0.50
2014,10,21,02,09,0.40
2014,10,21,02,10,0.60
2014,10,21,02,11,0.60
2014,10,21,02,12,0.20
2014,10,21,02,13,0.00
2014,10,21,02,14,0.00
2014,10,21,02,15,0.00
2014,10,21,02,16,0.30
2014,10,21,02,17,0.40
2014,10,21,02,18,0.60
2014,10,21,02,19,1.00
2014,10,21,02,20,0.70
2014,10,21,02,21,1.20
2014,10,21,02,22,1.10
2014,10,21,02,23,1.20
2014,10,21,02,24,1.60
2014,10,21,02,25,1.20
2014,10,21,02,26,1.20
2014,10,21,02,27,0.60
2014,10,21,02,28,0.90
2014,10,21,02,29,0.50
2014,10,21,02,30,0.90
2014,10,21,02,31,0.20
2014,10,21,02,32,0.50
2014,10,21,02,33,0.10
2014,10,21,02,34,0.00
2014,10,21,02,35,0.00
2014,10,21,02,36,0.00
2014,10,21,02,37,0.10
2014,10,21,02,38,0.00
2014,10,21,02,39,0.40
2014,10,21,02,40,2.20
2014,10,21,02,41,2.30
2014,10,21,02,42,1.40
2014,10,21,02,43,1.10
2014,10,21,02,44,0.50
2014,10,21,02,45,1.20
2014,10,21,02,46,1.40
2014,10,21,02,47,1.50
2014,10,21,02,48,1.40
2014,10,21,02,49,1.70
2014,10,21,02,50,3.10
2014,10,21,02,51,3.10
2014,10,21,02,52,2.30
2014,10,21,02,53,1.50
2014,10,21,02,54,1.20
2014,10,21,02,55,0.40
2014,10,21,02,56,0.70
2014,10,21,02,57,1.00
2014,10,21,02,58,1.60
2014,10,21,02,59,1.40
2014,10,21,03,00,1.00
2014,10,21,03,01,1.10
2014,10,21,03,02,0.90
2014,10,21,03,03,1.00
2014,10,21,03,04,0.40
2014,10,21,03,05,0.00
2014,10,21,03,06,0.40
2014,10,21,03,07,0.50
2014,10,21,03,08,0.00
2014,10,21,03,09,0.00
2014,10,21,03,10,0.00
2014,10,21,03,11,0.00
2014,10,21,03,12,0.00
2014,10,21,03,13,0.00
2014,10,21,03,14,0.00
2014,10,21,03,15,0.10
2014,10,21,03,16,0.70
2014,10,21,03,17,1.80
2014,10,21,03,18,1.80
2014,10,21,03,19,1.40
2014,10,21,03,20,1.00
2014,10,21,03,21,0.80
2014,10,21,03,22,1.30
2014,10,21,03,23,0.90
2014,10,21,03,24,1.00
2014,10,21,03,25,0.70
2014,10,21,03,26,1.50
2014,10,21,03,27,1.70
2014,10,21,03,28,1.40
2014,10,21,03,29,2.10
2014,10,21,03,30,1.20
2014,10,21,03,31,0.40
2014,10,21,03,32,0.70
2014,10,21,03,33,0.90
2014,10,21,03,34,1.70
2014,10,21,03,35,3.10
2014,10,21,03,36,4.30
2014,10,21,03,37,3.30
2014,10,21,03,38,2.80
2014,10,21,03,39,2.30
2014,10,21,03,40,2.80
2014,10,21,03,41,3.80
2014,10,21,03,42,3.60
2014,10,21,03,43,2.40
2014,10,21,03,44,2.80
2014,10,21,03,45,3.20
2014,10,21,03,46,2.60
2014,10,21,03,47,2.80
2014,10,21,03,48,2.60
2014,10,21,03,49,1.60
2014,10,21,03,50,0.90
2014,10,21,03,51,1.20
2014,10,21,03,52,0.30
2014,10,21,03,53,0.40
2014,10,21,03,54,1.00
2014,10,21,03,55,1.70
2014,10,21,03,56,1.80
2014,10,21,03,57,1.50
2014,10,21,03,58,0.30
2014,10,21,03,59,0.00
2014,10,21,04,00,0.20
2014,10,21,04,01,0.40
2014,10,21,04,02,0.40
2014,10,21,04,03,0.00
2014,10,21,04,04,0.10
2014,10,21,04,05,0.00
2014,10,21,04,06,0.60
2014,10,21,04,07,0.70
2014,10,21,04,08,0.10
2014,10,21,04,09,0.10
2014,10,21,04,10,0.40
2014,10,21,04,11,0.10
2014,10,21,04,12,0.00
2014,10,21,04,13,0.00
2014,10,21,04,14,0.40
2014,10,21,04,15,3.20
2014,10,21,04,16,4.50
2014,10,21,04,17,4.80
2014,10,21,04,18,5.20
2014,10,21,04,19,5.40
2014,10,21,04,20,7.00
2014,10,21,04,21,5.50
2014,10,21,04,22,3.90
2014,10,21,04,23,3.60
2014,10,21,04,24,4.30
2014,10,21,04,25,3.80
2014,10,21,04,26,3.40
2014,10,21,04,27,4.10
2014,10,21,04,28,3.90
2014,10,21,04,29,2.70
2014,10,21,04,30,1.90
2014,10,21,04,31,2.10
2014,10,21,04,32,1.60
2014,10,21,04,33,3.50
2014,10,21,04,34,3.90
2014,10,21,04,35,3.40
2014,10,21,04,36,2.80
2014,10,21,04,37,1.80
2014,10,21,04,38,1.40
2014,10,21,04,39,1.50
2014,10,21,04,40,2.10
2014,10,21,04,41,1.20
2014,10,21,04,42,1.80
2014,10,21,04,43,3.30
2014,10,21,04,44,3.60
2014,10,21,04,45,3.50
2014,10,21,04,46,2.10
2014,10,21,04,47,2.00
2014,10,21,04,48,2.10
2014,10,21,04,49,1.40
2014,10,21,04,50,0.50
2014,10,21,04,51,1.30
2014,10,21,04,52,1.50
2014,10,21,04,53,3.60
2014,10,21,04,54,2.10
2014,10,21,04,55,1.70
2014,10,21,04,56,2.30
2014,10,21,04,57,2.60
2014,10,21,04,58,3.10
2014,10,21,04,59,3.60
2014,10,21,05,00,3.90
2014,10,21,05,01,3.80
2014,10,21,05,02,3.30
2014,10,21,05,03,3.00
2014,10,21,05,04,1.80
2014,10,21,05,05,1.70
2014,10,21,05,06,0.70
2014,10,21,05,07,1.50
2014,10,21,05,08,3.60
2014,10,21,05,09,2.60
2014,10,21,05,10,3.90
2014,10,21,05,11,4.50
2014,10,21,05,12,3.30
2014,10,21,05,13,1.70
2014,10,21,05,14,2.60
2014,10,21,05,15,2.10
2014,10,21,05,16,2.10
2014,10,21,05,17,1.50
2014,10,21,05,18,2.80
2014,10,21,05,19,3.90
2014,10,21,05,20,4.30
2014,10,21,05,21,2.70
2014,10,21,05,22,1.70
2014,10,21,05,23,0.30
2014,10,21,05,24,0.30
2014,10,21,05,25,2.60
2014,10,21,05,26,1.80
2014,10,21,05,27,0.70
2014,10,21,05,28,0.70
2014,10,21,05,29,1.40
2014,10,21,05,30,1.80
2014,10,21,05,31,3.00
2014,10,21,05,32,1.90
2014,10,21,05,33,2.40
2014,10,21,05,34,2.20
2014,10,21,05,35,1.80
2014,10,21,05,36,2.60
2014,10,21,05,37,2.30
2014,10,21,05,38,2.30
2014,10,21,05,39,2.20
2014,10,21,05,40,3.30
2014,10,21,05,41,2.40
2014,10,21,05,42,4.30
2014,10,21,05,43,4.10
2014,10,21,05,44,3.70
2014,10,21,05,45,3.00
2014,10,21,05,46,2.00
2014,10,21,05,47,2.10
2014,10,21,05,48,1.70
2014,10,21,05,49,1.70
2014,10,21,05,50,1.80
2014,10,21,05,51,1.60
2014,10,21,05,52,1.60
2014,10,21,05,53,1.90
2014,10,21,05,54,1.40
2014,10,21,05,55,3.80
2014,10,21,05,56,3.50
2014,10,21,05,57,2.50
2014,10,21,05,58,2.20
2014,10,21,05,59,2.90
2014,10,21,06,00,3.40
2014,10,21,06,01,5.40
2014,10,21,06,02,4.50
2014,10,21,06,03,5.00
2014,10,21,06,04,4.30
2014,10,21,06,05,3.70
2014,10,21,06,06,3.10
2014,10,21,06,07,4.40
2014,10,21,06,08,4.20
2014,10,21,06,09,3.60
2014,10,21,06,10,2.50
2014,10,21,06,11,2.40
2014,10,21,06,12,2.90
2014,10,21,06,13,2.70
2014,10,21,06,14,3.90
2014,10,21,06,15,3.40
2014,10,21,06,16,4.60
2014,10,21,06,17,3.70
2014,10,21,06,18,2.50
2014,10,21,06,19,3.20
2014,10,21,06,20,3.60
2014,10,21,06,21,3.70
2014,10,21,06,22,2.60
2014,10,21,06,23,2.40
2014,10,21,06,24,1.30
2014,10,21,06,25,1.80
2014,10,21,06,26,1.00
2014,10,21,06,27,1.10
2014,10,21,06,28,1.20
2014,10,21,06,29,1.30
2014,10,21,06,30,1.90
2014,10,21,06,31,3.60
2014,10,21,06,32,4.10
2014,10,21,06,33,3.00
2014,10,21,06,34,2.00
2014,10,21,06,35,3.40
2014,10,21,06,36,3.40
2014,10,21,06,37,1.60
2014,10,21,06,38,1.40
2014,10,21,06,39,1.80
2014,10,21,06,40,1.80
2014,10,21,06,41,0.40
2014,10,21,06,42,1.70
2014,10,21,06,43,1.70
2014,10,21,06,44,1.50
2014,10,21,06,45,1.50
2014,10,21,06,46,0.30
2014,10,21,06,47,0.10
2014,10,21,06,48,0.10
2014,10,21,06,49,0.70
2014,10,21,06,50,1.10
2014,10,21,06,51,1.10
2014,10,21,06,52,0.90
2014,10,21,06,53,0.80
2014,10,21,06,54,0.60
2014,10,21,06,55,0.40
2014,10,21,06,56,0.60
2014,10,21,06,57,1.00
2014,10,21,06,58,1.80
2014,10,21,06,59,2.60
2014,10,21,07,00,1.70
2014,10,21,07,01,1.50
2014,10,21,07,02,2.00
2014,10,21,07,03,2.60
2014,10,21,07,04,2.30
2014,10,21,07,05,2.50
2014,10,21,07,06,2.80
2014,10,21,07,07,3.30
2014,10,21,07,08,2.30
2014,10,21,07,09,2.30
2014,10,21,07,10,2.80
2014,10,21,07,11,2.80
2014,10,21,07,12,3.10
2014,10,21,07,13,3.10
2014,10,21,07,14,2.70
2014,10,21,07,15,2.00
2014,10,21,07,16,1.50
2014,10,21,07,17,0.10
2014,10,21,07,18,0.50
2014,10,21,07,19,1.40
2014,10,21,07,20,1.50
2014,10,21,07,21,2.00
2014,10,21,07,22,1.20
2014,10,21,07,23,1.90
2014,10,21,07,24,0.90
2014,10,21,07,25,1.40
2014,10,21,07,26,1.80
2014,10,21,07,27,0.60
2014,10,21,07,28,0.00
2014,10,21,07,29,0.00
2014,10,21,07,30,0.00
2014,10,21,07,31,0.10
2014,10,21,07,32,0.00
2014,10,21,07,33,0.00
2014,10,21,07,34,0.10
2014,10,21,07,35,0.90
2014,10,21,07,36,1.30
2014,10,21,07,37,1.00
2014,10,21,07,38,0.90
2014,10,21,07,39,0.00
2014,10,21,07,40,0.00
2014,10,21,07,41,0.10
2014,10,21,07,42,1.00
2014,10,21,07,43,1.30
2014,10,21,07,44,1.50
2014,10,21,07,45,0.90
2014,10,21,07,46,0.90
2014,10,21,07,47,1.50
2014,10,21,07,48,1.40
2014,10,21,07,49,1.40
2014,10,21,07,50,1.00
2014,10,21,07,51,1.20
2014,10,21,07,52,0.70
2014,10,21,07,53,0.60
2014,10,21,07,54,0.60
2014,10,21,07,55,1.10
2014,10,21,07,56,1.20
2014,10,21,07,57,2.00
2014,10,21,07,58,2.00
2014,10,21,07,59,3.00
2014,10,21,08,00,3.00
2014,10,21,08,01,2.30
2014,10,21,08,02,2.30
2014,10,21,08,03,2.10
2014,10,21,08,04,1.10
2014,10,21,08,05,0.90
2014,10,21,08,06,1.30
2014,10,21,08,07,1.20
2014,10,21,08,08,1.30
2014,10,21,08,09,1.50
2014,10,21,08,10,1.70
2014,10,21,08,11,1.80
2014,10,21,08,12,1.90
2014,10,21,08,13,1.80
2014,10,21,08,14,2.50
2014,10,21,08,15,1.80
2014,10,21,08,16,3.40
2014,10,21,08,17,3.60
2014,10,21,08,18,3.10
2014,10,21,08,19,2.70
2014,10,21,08,20,2.40
2014,10,21,08,21,2.60
2014,10,21,08,22,2.40
2014,10,21,08,23,2.80
2014,10,21,08,24,1.20
2014,10,21,08,25,0.60
2014,10,21,08,26,1.60
2014,10,21,08,27,1.70
2014,10,21,08,28,0.80
2014,10,21,08,29,0.70
2014,10,21,08,30,0.60
2014,10,21,08,31,0.90
2014,10,21,08,32,0.40
2014,10,21,08,33,0.60
2014,10,21,08,34,2.10
2014,10,21,08,35,2.40
2014,10,21,08,36,2.40
2014,10,21,08,37,2.00
2014,10,21,08,38,1.10
2014,10,21,08,39,2.20
2014,10,21,08,40,2.10
2014,10,21,08,41,2.60
2014,10,21,08,42,2.30
2014,10,21,08,43,2.30
2014,10,21,08,44,2.40
2014,10,21,08,45,2.50
2014,10,21,08,46,1.80
2014,10,21,08,47,1.00
2014,10,21,08,48,0.70
2014,10,21,08,49,1.70
2014,10,21,08,50,1.20
2014,10,21,08,51,0.80
2014,10,21,08,52,1.80
2014,10,21,08,53,2.60
2014,10,21,08,54,2.70
2014,10,21,08,55,2.60
2014,10,21,08,56,3.40
2014,10,21,08,57,5.10
2014,10,21,08,58,3.80
2014,10,21,08,59,3.40
2014,10,21,09,00,5.30
2014,10,21,09,01,6.00
2014,10,21,09,02,2.10
2014,10,21,09,03,5.00
2014,10,21,09,04,2.80
2014,10,21,09,05,2.90
2014,10,21,09,06,5.30
2014,10,21,09,07,6.10
2014,10,21,09,08,4.40
2014,10,21,09,09,4.50
2014,10,21,09,10,4.50
2014,10,21,09,11,5.00
2014,10,21,09,12,3.60
2014,10,21,09,13,5.70
2014,10,21,09,14,5.70
2014,10,21,09,15,3.70
2014,10,21,09,16,5.00
2014,10,21,09,17,2.70
2014,10,21,09,18,5.30
2014,10,21,09,19,4.90
2014,10,21,09,20,4.10
2014,10,21,09,21,5.60
2014,10,21,09,22,3.70
2014,10,21,09,23,3.40
2014,10,21,09,24,2.60
2014,10,21,09,25,4.20
2014,10,21,09,26,2.90
2014,10,21,09,27,3.90
2014,10,21,09,28,3.70
2014,10,21,09,29,1.40
2014,10,21,09,30,1.80
2014,10,21,09,31,3.70
2014,10,21,09,32,3.30
2014,10,21,09,33,3.40
2014,10,21,09,34,4.20
2014,10,21,09,35,2.40
2014,10,21,09,36,3.30
2014,10,21,09,37,2.80
2014,10,21,09,38,1.50
2014,10,21,09,39,2.30
2014,10,21,09,40,1.80
2014,10,21,09,41,2.60
2014,10,21,09,42,2.10
2014,10,21,09,43,1.50
2014,10,21,09,44,3.50
2014,10,21,09,45,4.80
2014,10,21,09,46,6.90
2014,10,21,09,47,7.40
2014,10,21,09,48,4.80
2014,10,21,09,49,5.00
2014,10,21,09,50,7.00
2014,10,21,09,51,5.30
2014,10,21,09,52,4.20
2014,10,21,09,53,4.20
2014,10,21,09,54,6.60
2014,10,21,09,55,6.10
2014,10,21,09,56,6.40
2014,10,21,09,57,4.20
2014,10,21,09,58,3.90
2014,10,21,09,59,3.80
2014,10,21,10,00,3.70
2014,10,21,10,01,3.90
2014,10,21,10,02,6.20
2014,10,21,10,03,5.10
2014,10,21,10,04,6.70
2014,10,21,10,05,8.30
2014,10,21,10,06,7.90
2014,10,21,10,07,7.20
2014,10,21,10,08,6.10
2014,10,21,10,09,5.70
2014,10,21,10,10,5.10
2014,10,21,10,11,3.70
2014,10,21,10,12,5.30
2014,10,21,10,13,7.20
2014,10,21,10,14,6.80
2014,10,21,10,15,4.40
2014,10,21,10,16,7.10
2014,10,21,10,17,7.30
2014,10,21,10,18,6.10
2014,10,21,10,19,6.40
2014,10,21,10,20,3.80
2014,10,21,10,21,3.40
2014,10,21,10,22,5.30
2014,10,21,10,23,6.40
2014,10,21,10,24,4.70
2014,10,21,10,25,3.90
2014,10,21,10,26,6.40
2014,10,21,10,27,4.50
2014,10,21,10,28,5.90
2014,10,21,10,29,7.10
2014,10,21,10,30,5.40
2014,10,21,10,31,6.80
2014,10,21,10,32,5.00
2014,10,21,10,33,4.20
2014,10,21,10,34,6.90
2014,10,21,10,35,7.50
2014,10,21,10,36,6.80
2014,10,21,10,37,6.10
2014,10,21,10,38,6.40
2014,10,21,10,39,3.50
2014,10,21,10,40,2.40
2014,10,21,10,41,1.80
2014,10,21,10,42,3.90
2014,10,21,10,43,5.20
2014,10,21,10,44,4.50
2014,10,21,10,45,3.20
2014,10,21,10,46,3.70
2014,10,21,10,47,3.80
2014,10,21,10,48,4.70
2014,10,21,10,49,3.70
2014,10,21,10,50,3.50
2014,10,21,10,51,8.10
2014,10,21,10,52,6.00
2014,10,21,10,53,5.10
2014,10,21,10,54,3.40
2014,10,21,10,55,3.80
2014,10,21,10,56,4.10
2014,10,21,10,57,5.00
2014,10,21,10,58,6.80
2014,10,21,10,59,5.50
2014,10,21,11,00,5.30
2014,10,21,11,01,4.40
2014,10,21,11,02,4.90
2014,10,21,11,03,4.50
2014,10,21,11,04,2.80
2014,10,21,11,05,2.90
2014,10,21,11,06,4.80
2014,10,21,11,07,5.90
2014,10,21,11,08,7.10
2014,10,21,11,09,5.20
2014,10,21,11,10,5.30
2014,10,21,11,11,7.50
2014,10,21,11,12,6.30
2014,10,21,11,13,7.50
2014,10,21,11,14,6.70
2014,10,21,11,15,7.70
2014,10,21,11,16,6.30
2014,10,21,11,17,5.00
2014,10,21,11,18,6.00
2014,10,21,11,19,4.70
2014,10,21,11,20,5.40
2014,10,21,11,21,5.90
2014,10,21,11,22,5.90
2014,10,21,11,23,5.90
2014,10,21,11,24,5.00
2014,10,21,11,25,5.60
2014,10,21,11,26,4.70
2014,10,21,11,27,4.20
2014,10,21,11,28,4.30
2014,10,21,11,29,5.10
2014,10,21,11,30,4.70
2014,10,21,11,31,4.70
2014,10,21,11,32,5.80
2014,10,21,11,33,5.90
2014,10,21,11,34,5.00
2014,10,21,11,35,4.80
2014,10,21,11,36,4.10
2014,10,21,11,37,3.10
2014,10,21,11,38,2.50
2014,10,21,11,39,2.00
2014,10,21,11,40,1.30
2014,10,21,11,41,2.70
2014,10,21,11,42,3.40
2014,10,21,11,43,3.10
2014,10,21,11,44,4.90
2014,10,21,11,45,5.00
2014,10,21,11,46,3.60
2014,10,21,11,47,4.00
2014,10,21,11,48,3.80
2014,10,21,11,49,4.00
2014,10,21,11,50,3.70
2014,10,21,11,51,3.80
2014,10,21,11,52,3.00
2014,10,21,11,53,2.80
2014,10,21,11,54,2.10
2014,10,21,11,55,1.90
2014,10,21,11,56,1.80
2014,10,21,11,57,1.70
2014,10,21,11,58,2.00
2014,10,21,11,59,3.00
2014,10,21,12,00,3.40
2014,10,21,12,01,3.80
2014,10,21,12,02,1.20
2014,10,21,12,03,2.30
2014,10,21,12,04,2.30
2014,10,21,12,05,3.10
2014,10,21,12,06,3.10
2014,10,21,12,07,1.50
2014,10,21,12,08,4.00
2014,10,21,12,09,11.10
2014,10,21,12,10,7.70
2014,10,21,12,11,7.20
2014,10,21,12,12,5.50
2014,10,21,12,13,3.80
2014,10,21,12,14,3.40
2014,10,21,12,15,7.90
2014,10,21,12,16,9.80
2014,10,21,12,17,9.80
2014,10,21,12,18,7.80
2014,10,21,12,19,7.30
2014,10,21,12,20,5.20
2014,10,21,12,21,6.50
2014,10,21,12,22,7.60
2014,10,21,12,23,4.80
2014,10,21,12,24,6.90
2014,10,21,12,25,8.00
2014,10,21,12,26,7.50
2014,10,21,12,27,6.90
2014,10,21,12,28,7.80
2014,10,21,12,29,7.20
2014,10,21,12,30,5.00
2014,10,21,12,31,4.70
2014,10,21,12,32,3.10
2014,10,21,12,33,4.60
2014,10,21,12,34,4.20
2014,10,21,12,35,3.80
2014,10,21,12,36,2.00
2014,10,21,12,37,3.60
2014,10,21,12,38,2.60
2014,10,21,12,39,2.90
2014,10,21,12,40,2.10
2014,10,21,12,41,0.90
2014,10,21,12,42,1.90
2014,10,21,12,43,1.50
2014,10,21,12,44,3.40
2014,10,21,12,45,5.00
2014,10,21,12,46,4.00
2014,10,21,12,47,4.20
2014,10,21,12,48,1.70
2014,10,21,12,49,1.80
2014,10,21,12,50,3.70
2014,10,21,12,51,1.20
2014,10,21,12,52,5.60
2014,10,21,12,53,7.50
2014,10,21,12,54,5.10
2014,10,21,12,55,5.00
2014,10,21,12,56,3.90
2014,10,21,12,57,2.90
2014,10,21,12,58,3.30
2014,10,21,12,59,2.40
2014,10,21,13,00,0.80
2014,10,21,13,01,1.60
2014,10,21,13,02,2.70
2014,10,21,13,03,1.60
2014,10,21,13,04,1.00
2014,10,21,13,05,1.60
2014,10,21,13,06,2.10
2014,10,21,13,07,3.50
2014,10,21,13,08,4.80
2014,10,21,13,09,4.40
2014,10,21,13,10,5.40
2014,10,21,13,11,7.20
2014,10,21,13,12,2.00
2014,10,21,13,13,3.40
2014,10,21,13,14,7.00
2014,10,21,13,15,3.60
2014,10,21,13,16,3.50
2014,10,21,13,17,3.50
2014,10,21,13,18,1.50
2014,10,21,13,19,1.20
2014,10,21,13,20,1.80
2014,10,21,13,21,2.40
2014,10,21,13,22,2.50
2014,10,21,13,23,5.60
2014,10,21,13,24,4.20
2014,10,21,13,25,3.50
2014,10,21,13,26,5.10
2014,10,21,13,27,2.60
2014,10,21,13,28,5.90
2014,10,21,13,29,6.70
2014,10,21,13,30,3.40
2014,10,21,13,31,6.10
2014,10,21,13,32,3.20
2014,10,21,13,33,3.70
2014,10,21,13,34,3.20
2014,10,21,13,35,3.30
2014,10,21,13,36,2.60
2014,10,21,13,37,4.70
2014,10,21,13,38,5.20
2014,10,21,13,39,2.10
2014,10,21,13,40,1.30
2014,10,21,13,41,1.60
2014,10,21,13,42,1.50
2014,10,21,13,43,3.10
2014,10,21,13,44,2.60
2014,10,21,13,45,2.90
2014,10,21,13,46,1.90
2014,10,21,13,47,1.00
2014,10,21,13,48,1.00
2014,10,21,13,49,2.10
2014,10,21,13,50,0.50
2014,10,21,13,51,2.60
2014,10,21,13,52,3.10
2014,10,21,13,53,3.20
2014,10,21,13,54,5.40
2014,10,21,13,55,4.60
2014,10,21,13,56,7.60
2014,10,21,13,57,6.10
2014,10,21,13,58,5.80
2014,10,21,13,59,5.90
2014,10,21,14,00,4.00
2014,10,21,14,01,4.30
2014,10,21,14,02,3.40
2014,10,21,14,03,6.50
2014,10,21,14,04,8.20
2014,10,21,14,05,4.10
2014,10,21,14,06,2.10
2014,10,21,14,07,2.10
2014,10,21,14,08,0.60
2014,10,21,14,09,0.30
2014,10,21,14,10,0.80
2014,10,21,14,11,1.00
2014,10,21,14,12,1.60
2014,10,21,14,13,2.80
2014,10,21,14,14,0.90
2014,10,21,14,15,1.00
2014,10,21,14,16,1.20
2014,10,21,14,17,1.20
2014,10,21,14,18,2.00
2014,10,21,14,19,3.80
2014,10,21,14,20,3.60
2014,10,21,14,21,2.60
2014,10,21,14,22,7.20
2014,10,21,14,23,4.40
2014,10,21,14,24,4.10
2014,10,21,14,25,3.70
2014,10,21,14,26,1.20
2014,10,21,14,27,5.10
2014,10,21,14,28,3.00
2014,10,21,14,29,2.60
2014,10,21,14,30,1.40
2014,10,21,14,31,0.70
2014,10,21,14,32,0.30
2014,10,21,14,33,1.40
2014,10,21,14,34,5.90
2014,10,21,14,35,5.90
2014,10,21,14,36,3.40
2014,10,21,14,37,4.40
2014,10,21,14,38,3.60
2014,10,21,14,39,3.90
2014,10,21,14,40,2.30
2014,10,21,14,41,1.20
2014,10,21,14,42,3.00
2014,10,21,14,43,4.40
2014,10,21,14,44,2.80
2014,10,21,14,45,4.60
2014,10,21,14,46,5.00
2014,10,21,14,47,2.60
2014,10,21,14,48,1.20
2014,10,21,14,49,3.20
2014,10,21,14,50,3.70
2014,10,21,14,51,4.20
2014,10,21,14,52,4.80
2014,10,21,14,53,7.40
2014,10,21,14,54,6.40
2014,10,21,14,55,3.80
2014,10,21,14,56,3.40
2014,10,21,14,57,0.80
2014,10,21,14,58,3.00
2014,10,21,14,59,2.80
2014,10,21,15,00,3.00
2014,10,21,15,01,7.50
2014,10,21,15,02,6.00
2014,10,21,15,03,5.00
2014,10,21,15,04,4.80
2014,10,21,15,05,4.20
2014,10,21,15,06,5.40
2014,10,21,15,07,2.70
2014,10,21,15,08,3.50
2014,10,21,15,09,3.40
2014,10,21,15,10,5.40
2014,10,21,15,11,7.00
2014,10,21,15,12,7.10
2014,10,21,15,13,9.90
2014,10,21,15,14,5.50
2014,10,21,15,15,6.90
2014,10,21,15,16,5.30
2014,10,21,15,17,6.10
2014,10,21,15,18,4.70
2014,10,21,15,19,5.40
2014,10,21,15,20,8.80
2014,10,21,15,21,4.90
2014,10,21,15,22,6.50
2014,10,21,15,23,6.40
2014,10,21,15,24,5.00
2014,10,21,15,25,5.60
2014,10,21,15,26,7.80
2014,10,21,15,27,6.50
2014,10,21,15,28,8.00
2014,10,21,15,29,9.40
2014,10,21,15,30,10.50
2014,10,21,15,31,9.80
2014,10,21,15,32,9.50
2014,10,21,15,33,7.10
2014,10,21,15,34,6.40
2014,10,21,15,35,6.50
2014,10,21,15,36,8.10
2014,10,21,15,37,5.90
2014,10,21,15,38,8.90
2014,10,21,15,39,7.40
2014,10,21,15,40,8.30
2014,10,21,15,41,7.90
2014,10,21,15,42,7.60
2014,10,21,15,43,4.80
2014,10,21,15,44,5.30
2014,10,21,15,45,5.60
2014,10,21,15,46,6.40
2014,10,21,15,47,5.30
2014,10,21,15,48,4.80
2014,10,21,15,49,4.20
2014,10,21,15,50,5.80
2014,10,21,15,51,5.70
2014,10,21,15,52,8.60
2014,10,21,15,53,8.20
2014,10,21,15,54,6.10
2014,10,21,15,55,6.70
2014,10,21,15,56,7.40
2014,10,21,15,57,5.60
2014,10,21,15,58,3.90
2014,10,21,15,59,4.20
2014,10,21,16,00,3.10
2014,10,21,16,01,6.70
2014,10,21,16,02,9.60
2014,10,21,16,03,6.90
2014,10,21,16,04,8.80
2014,10,21,16,05,6.30
2014,10,21,16,06,7.40
2014,10,21,16,07,7.50
2014,10,21,16,08,7.40
2014,10,21,16,09,9.10
2014,10,21,16,10,4.30
2014,10,21,16,11,4.80
2014,10,21,16,12,4.30
2014,10,21,16,13,3.80
2014,10,21,16,14,2.80
2014,10,21,16,15,2.30
2014,10,21,16,16,3.90
2014,10,21,16,17,5.20
2014,10,21,16,18,3.80
2014,10,21,16,19,2.90
2014,10,21,16,20,3.70
2014,10,21,16,21,5.20
2014,10,21,16,22,6.30
2014,10,21,16,23,4.60
2014,10,21,16,24,6.60
2014,10,21,16,25,4.30
2014,10,21,16,26,3.90
2014,10,21,16,27,3.60
2014,10,21,16,28,5.40
2014,10,21,16,29,5.40
2014,10,21,16,30,3.40
2014,10,21,16,31,4.10
2014,10,21,16,32,3.60
2014,10,21,16,33,2.60
2014,10,21,16,34,4.60
2014,10,21,16,35,4.40
2014,10,21,16,36,4.20
2014,10,21,16,37,6.90
2014,10,21,16,38,8.70
2014,10,21,16,39,4.70
2014,10,21,16,40,6.30
2014,10,21,16,41,6.50
2014,10,21,16,42,5.60
2014,10,21,16,43,4.60
2014,10,21,16,44,2.30
2014,10,21,16,45,4.50
2014,10,21,16,46,2.80
2014,10,21,16,47,2.80
2014,10,21,16,48,2.60
2014,10,21,16,49,2.10
2014,10,21,16,50,2.00
2014,10,21,16,51,1.70
2014,10,21,16,52,2.30
2014,10,21,16,53,2.80
2014,10,21,16,54,3.70
2014,10,21,16,55,3.60
2014,10,21,16,56,3.60
2014,10,21,16,57,4.20
2014,10,21,16,58,3.40
2014,10,21,16,59,3.30
2014,10,21,17,00,2.60
2014,10,21,17,01,3.70
2014,10,21,17,02,4.00
2014,10,21,17,03,3.60
2014,10,21,17,04,2.40
2014,10,21,17,05,2.00
2014,10,21,17,06,1.90
2014,10,21,17,07,2.60
2014,10,21,17,08,3.90
2014,10,21,17,09,3.00
2014,10,21,17,10,2.40
2014,10,21,17,11,2.10
2014,10,21,17,12,1.20
2014,10,21,17,13,0.60
2014,10,21,17,14,0.10
2014,10,21,17,15,0.00
2014,10,21,17,16,0.00
2014,10,21,17,17,0.00
2014,10,21,17,18,1.60
2014,10,21,17,19,2.40
2014,10,21,17,20,2.60
2014,10,21,17,21,3.50
2014,10,21,17,22,2.60
2014,10,21,17,23,0.80
2014,10,21,17,24,0.60
2014,10,21,17,25,2.30
2014,10,21,17,26,1.70
2014,10,21,17,27,1.40
2014,10,21,17,28,2.10
2014,10,21,17,29,1.10
2014,10,21,17,30,1.10
2014,10,21,17,31,1.90
2014,10,21,17,32,0.40
2014,10,21,17,33,1.00
2014,10,21,17,34,2.10
2014,10,21,17,35,0.80
2014,10,21,17,36,3.00
2014,10,21,17,37,2.60
2014,10,21,17,38,1.80
2014,10,21,17,39,2.20
2014,10,21,17,40,1.20
2014,10,21,17,41,0.30
2014,10,21,17,42,1.20
2014,10,21,17,43,2.10
2014,10,21,17,44,1.00
2014,10,21,17,45,0.60
2014,10,21,17,46,1.50
2014,10,21,17,47,2.00
2014,10,21,17,48,1.00
2014,10,21,17,49,2.80
2014,10,21,17,50,1.80
2014,10,21,17,51,2.00
2014,10,21,17,52,3.40
2014,10,21,17,53,3.90
2014,10,21,17,54,5.00
2014,10,21,17,55,4.90
2014,10,21,17,56,5.30
2014,10,21,17,57,4.80
2014,10,21,17,58,7.10
2014,10,21,17,59,6.30
2014,10,21,18,00,4.70
2014,10,21,18,01,3.30
2014,10,21,18,02,3.50
2014,10,21,18,03,4.40
2014,10,21,18,04,3.40
2014,10,21,18,05,4.00
2014,10,21,18,06,3.30